Content
SEND FEEDBACK

Daily
Averages
Monthly
Summary
United States of America

BURLINGTON, NORTH CAROLINA


Home > North America > United States > North Carolina
Elevation: 638 feet     Latitude: 36 02N     Longitude: 079 28W

WEATHER
 
SELECT A DAY
Number of Records: 175,659;   Date Range: 7/1/98 - 11/27/14
 
SHARE

PRINT THIS DATA

[ ← Previous Day ]
WEATHER ALMANAC - OCTOBER 22, 2013
[ Next Day → ]
[ °C ]   °F
Weather ElementAverageHighLow
Temperature59.1 °F66.9 °F (1:54 pm)53.1 °F (6:54 am)
Dewpoint51.5 °F55.9 °F (11:45 pm)48 °F (1:54 am)
Humidity77.2 %93 % (10:54 pm)51 % (1:54 pm)
Barometer29.89 in30.00 in (1:54 am)29.81 in (11:45 pm)
Wind Speed1.9 mph5.8 mph (2:54 pm)
Weather ElementAverage
Visibility8.7 mi
Wind DirectionE (90.8 °)

Weather ElementTotal
Precipitation---
Heating Degree Days5 (Base 65)
Growing Degree Days10 (Base 50)
Averaged from 25 records on October 22, 2013
WEATHER CONDITIONS BREAKOUT
WIND DIRECTION BREAKOUT
WEATHER BY HOUR - OCTOBER 22, 2013
[ °C ]   °F
Local TimeTemperatureDewpointHumidityBarometerVisibilityWind DirectionWind SpeedGust SpeedPrecipitationEventsConditions
1:54 AM54.0 °F48.0 °F80 %30.00 in10.0 miSW (230°)3.5 mphClear
2:54 AM55.0 °F48.0 °F77 %29.99 in10.0 miCalmClear
3:54 AM55.0 °F48.9 °F80 %29.99 in10.0 miSSW (200°)3.5 mphClear
4:54 AM55.0 °F48.9 °F80 %29.96 in10.0 miSouth (190°)3.5 mphClear
5:54 AM55.0 °F48.9 °F80 %29.95 in10.0 miCalmClear
6:54 AM53.1 °F48.9 °F86 %29.94 in10.0 miCalmPartly Cloudy
7:54 AM54.0 °F50.0 °F86 %29.94 in10.0 miCalmScattered Clouds
8:54 AM55.0 °F51.1 °F86 %29.95 in10.0 miCalmScattered Clouds
10:54 AM60.1 °F53.1 °F78 %29.94 in10.0 miSSW (200°)4.6 mph
11:54 AM63.0 °F53.1 °F70 %29.93 in10.0 miWSW (240°)4.6 mphClear
12:54 PM66.0 °F52.0 °F60 %29.91 in10.0 miVariable3.5 mphClear
1:54 PM66.9 °F48.0 °F51 %29.88 in10.0 miWSW (240°)4.6 mphClear
2:54 PM66.9 °F48.0 °F51 %29.87 in10.0 miSW (230°)5.8 mphMostly Cloudy
3:54 PM66.0 °F50.0 °F56 %29.87 in10.0 miSouth (190°)3.5 mphMostly Cloudy
4:54 PM64.9 °F51.1 °F61 %29.84 in10.0 miSSE (150°)3.5 mphOvercast
5:54 PM63.0 °F52.0 °F67 %29.85 in10.0 miSouth (190°)4.6 mphOvercast
6:54 PM62.1 °F53.1 °F72 %29.85 in10.0 miCalmOvercast
7:54 PM60.1 °F54.0 °F80 %29.85 in10.0 miCalmMostly Cloudy
8:54 PM57.9 °F54.0 °F87 %29.85 in10.0 miCalmMostly Cloudy
9:54 PM55.9 °F53.1 °F90 %29.84 in6.0 miCalmMostly Cloudy
10:40 PM57.0 °F54.0 °F89 %29.83 in5.0 miCalmOvercast
10:54 PM55.9 °F54.0 °F93 %29.83 in3.0 miCalmOvercast
11:24 PM57.0 °F54.0 °F89 %29.82 in4.0 miCalmOvercast
11:45 PM59.0 °F55.9 °F90 %29.81 in5.0 miCalmOvercast
11:54 PM59.0 °F55.9 °F90 %29.81 in4.0 miSSW (210°)3.5 mphOvercast
Hourly data recorded from KBUY, located miles away from Burlington, North Carolina







STORIES FROM OUR PARTNERS